map of UFA home
Great Circle Mapper logo
UFA - Airport
Location
City:  Ufa, Bashkortostan, Russian Federation (Russia)
ICAO / IATA:UWUU / UFA

Details
Type:Airport (Aerodrome, Airfield)
Use:Public/Civil
Latitude:5433'27"N (54.557511)
Longitude:5552'28"E (55.874417)
Datum:WGS 1984
Elevation:449 ft (137 m)
Runways:5
Longest:12340 × 197 ft (3761 × 60 m), paved

Time
Time Zone:UTC+5 (DST+6)

Weather
METAR:UWUU 011330Z 17004MPS 130V210 CAVOK 02/M05 Q1012 140///60 NOSIG RMK QFE748/0998
TAF:UWUU 011049Z 0112/0212 19006G12MPS 9999 BKN020 SCT030CB 650300 530002
TEMPO 0112/0115 2500 -SHRA BKN010
TEMPO 0115/0203 VRB03MPS 1500 SHSNRA BR BKN005

Related Locations
Nearby:
Farthest:AAXX: 10440 mi / 16802 km
Rothera Point, Adelaide Island, AQ

Find:

   beyond  
but within

Other Information
Maps:
NOTAMs:
Links:
Sources:

  
flag of Russian Federation (Russia)   

Sectional Chart

Flight Planning
at skyvector.com

Satellite Image

Google Maps Satellite View

 

Copyright © 2004-2014 Karl L. Swartz. All rights reserved.
The Great Circle Mapper name and logo are trademarks of the Great Circle Mapper.
All other trademarks mentioned herein belong to their respective owners.
Please see credits for attibutions and further copyright information.

  Follow gcmap on Facebook Follow gcmap on Twitter

hCard Microformat

Geo Microformat